Location: Siratepeler Tepesi
(39.1042°N, 32.0781°E)
Time: 10:33:02
(UTC+00:00)

Cosmos 2219 Rocket - Pass Details

Date: 11 April 2026
Orbit: 826 x 846 km, 71.0° (Epoch: 14 May)

Event Time Altitude Azimuth Distance (km) Brightness Sun altitude
Rises 17:28:27 0° 203° (SSW) 3,350 5.3 -12.6°
Reaches altitude 10° 17:30:52 10° 204° (SSW) 2,420 4.6 -13.0°
Maximum altitude 17:36:25 82° 293° (WNW) 838 2.2 -14.0°
Drops below altitude 10° 17:42:01 10° 21° (NNE) 2,437 4.6 -15.0°
Sets 17:44:27 0° 22° (NNE) 3,375 5.4 -15.4°
